Location: Hokitika
(42.7170°S, 170.9670°E)
Time: 23:39:14
(UTC+12:00)

ISS - Visible Passes

Search period start: 14 May 2021 00:00
Search period end: 24 May 2021 00:00
Orbit: 417 x 422 km, 51.6° (Epoch: 14 May)

Date Brightness Start Highest point End Pass type
(mag) Time Alt. Az. Time Alt. Az. Time Alt. Az.
20 May -1.8 07:14:54 10° NNW 07:18:03 34° NE 07:21:13 10° ESE visible
21 May -1.0 06:28:04 10° N 06:30:42 21° NE 06:33:23 10° E visible
22 May -0.6 05:41:50 10° NNE 05:43:26 13° NE 05:45:03 10° ENE visible
22 May -3.7 07:16:22 10° WNW 07:19:48 85° SSW 07:23:16 10° SE visible
23 May -3.1 06:28:58 10° NW 06:32:20 58° NE 06:35:45 10° ESE visible
